Location: Richford
(44.0236°N, 89.4354°W)
Time: 11:10:32
(UTC+00:00)

ISS - Visible Passes

Search period start: 17 May 2022 00:00
Search period end: 27 May 2022 00:00
Orbit: 415 x 422 km, 51.6° (Epoch: 17 May)

Date Brightness Start Highest point End Pass type
(mag) Time Alt. Az. Time Alt. Az. Time Alt. Az.
17 May -3.1 02:41:41 10° WSW 02:44:59 57° NNW 02:48:19 10° NE visible
17 May -1.3 04:19:30 10° WNW 04:22:15 23° N 04:25:01 10° NE visible
17 May -1.4 05:56:53 10° NW 05:59:14 25° N 05:59:14 25° N visible
18 May -3.7 01:53:42 10° WSW 01:57:03 88° NNW 02:00:25 10° ENE visible
18 May -1.5 03:31:18 10° WNW 03:34:10 26° NNW 03:37:03 10° NE visible
18 May -1.4 05:08:56 10° NW 05:11:41 23° N 05:12:38 20° NE visible
19 May -1.8 02:43:00 10° W 02:46:02 31° NNW 02:49:06 10° NE visible
19 May -1.2 04:20:49 10° NW 04:23:31 22° N 04:26:04 11° NE visible
19 May -1.3 05:57:41 10° NW 05:58:58 20° NW 05:58:58 20° NW visible
20 May -2.3 01:54:41 10° W 01:57:54 41° NNW 02:01:06 10° NE visible
20 May -1.2 03:32:35 10° NW 03:35:16 22° N 03:37:57 10° NE visible
20 May -1.9 05:09:41 10° NW 05:12:23 30° N 05:12:23 30° N visible
21 May -1.3 02:44:13 10° WNW 02:46:58 23° N 02:49:43 10° NE visible
21 May -1.6 04:21:35 10° NW 04:24:28 26° NNE 04:25:45 20° NE visible
21 May -0.9 05:58:12 10° WNW 05:58:38 13° WNW 05:58:38 13° WNW visible
22 May -1.5 01:55:43 10° WNW 01:58:38 26° NNW 02:01:32 10° NE visible
22 May -1.4 03:33:22 10° NW 03:36:07 23° N 03:38:52 10° ENE visible
22 May -1.9 05:10:04 10° NW 05:11:59 30° NW 05:11:59 30° NW visible
23 May -1.3 02:45:01 10° NW 02:47:41 21° N 02:50:22 10° NE visible
23 May -2.6 04:21:52 10° NW 04:25:04 39° NNE 04:25:17 39° NNE visible
24 May -2.1 03:33:37 10° NW 03:36:39 30° NNE 03:38:33 17° ENE visible
24 May -1.5 05:10:16 10° WNW 05:11:26 20° WNW 05:11:26 20° WNW visible
25 May -1.7 02:45:16 10° NW 02:48:07 25° NNE 02:50:59 10° ENE visible
25 May -3.3 04:21:52 10° WNW 04:24:40 58° NW 04:24:40 58° NW visible
26 May -3.2 03:33:28 10° NW 03:36:46 53° NNE 03:37:52 35° E visible
26 May -0.9 05:10:35 10° W 05:10:44 11° W 05:10:44 11° W visible
